Погода в Южном Аламышике

Узбекистан     40°45′19″N   72°36′38″E
темп.,
°C
ветер,
м/с
пор.,
м/с
влажн.,
%
обл.,
%
осадки,
мм/ч
давл.,
гПа
погр.,
м
27 февраля, сб
сб2723:00−2св11496 0.0 103325
02:00−3в014926 0.0 103123
05:00−3вюв115063 0.0 103123
08:00−3в1241100 0.0 1031150
11:00+1ссз1127100 0.0 1029732
14:00+3зсз1125100 0.0 10281087
17:00+3всв2224100 0.1 1032996
20:00+1всв4847100 0.1 1037430
28 февраля, вс
вс2823:00−1в356380 0.1 1037164
02:00−2вюв12603 0.0 103622
05:00−2в22535 0.0 103528
08:00−1в23440 0.0 1033133
11:00+4в12290 0.0 1027635
14:00+7с22260 0.0 1024931
17:00+7с22280 0.0 1025701
20:00+3всв33470 0.0 102856
1 марта, пн
пн123:00+1в34550 0.0 102881
02:00+1в23522 0.0 102744
05:000в23476 0.0 102724
08:00+1в344385 0.0 1027130
11:00+8в222776 0.0 1024516
14:00+12ссв121926 0.0 1022879
17:00+12с222013 0.0 1022679
20:00+7всв22410 0.0 102623
2 марта, вт
вт223:00+5в34500 0.0 102858
02:00+4в33490 0.0 102843
05:00+3в344343 0.0 102755
08:00+5в2339100 0.0 102789
11:00+10в2225100 0.0 1024421
14:00+13ссз1120100 0.0 1022770
17:00+13зсз2122100 0.0 1022456
20:00+10в0028100 0.0 102422
3 марта, ср
ср323:00+9в2241100 0.0 102426
02:00+7в2246100 0.0 102326
05:00+6ююв114599 0.0 102222
08:00+8вюв1140100 0.0 102243
11:00+12сз112898 0.0 1020640
14:00+14з112497 0.0 10171219
17:00+13зсз332598 0.0 1018885
20:00+10зсз224199 0.0 102033